Location: Bannatyne
(13.0833°N, 59.5333°W)
Time: 13:28:59
(UTC+00:00)

SR - Visible Passes

Search period start: 23 January 2020 00:00
Search period end: 02 February 2020 00:00
Orbit: 574 x 882 km, 66.7° (Epoch: 22 January)

Date Brightness Start Highest point End Pass type
(mag) Time Alt. Az. Time Alt. Az. Time Alt. Az.
27 Jan ? 00:39:24 10° SSW 00:39:34 11° SSW 00:39:34 11° SSW visible
27 Jan ? 23:50:18 10° S 23:52:11 21° SSE 23:52:11 21° SSE visible
28 Jan ? 23:02:37 10° SE 23:04:56 16° ESE 23:04:56 16° ESE visible
29 Jan ? 00:42:27 10° SW 00:44:25 21° WSW 00:44:25 21° WSW visible
29 Jan ? 23:52:26 10° SSW 23:57:17 71° SSW 23:57:17 71° SSW visible
30 Jan ? 23:03:25 10° S 23:08:25 36° ESE 23:10:13 29° ENE visible
31 Jan ? 00:46:34 10° WSW 00:49:43 19° WNW 00:49:43 19° WNW visible
31 Jan ? 09:43:46 10° NNE 09:46:29 15° ENE 09:49:06 10° E visible
31 Jan ? 22:15:56 10° SE 22:19:01 15° ESE 22:22:10 10° ENE visible
31 Jan ? 23:55:23 10° SW 00:00:39 43° WNW 00:02:45 31° NNW visible
01 Feb ? 23:05:28 10° SSW 23:10:59 81° ESE 23:15:50 16° NNE visible
